| time (UTC) | temp F | wind direction | speed knots | gust knots | rain 1hr in | rain 24hr in | rain mn in | humidity % | barometer mb |
| 20260508172225 | 56 | 134 | 4.3 | 5.2 | 0.00 | 0.00 | 0.00 | 55 | 1024.1 |
| 20260508171721 | 58 | 43 | 1.7 | 2.6 | 0.00 | 0.00 | 0.00 | 46 | 1023.7 |
| 20260508171217 | 57 | 274 | 0.9 | 0.9 | 0.00 | 0.00 | 0.00 | 46 | 1023.7 |
| 20260508170714 | 55 | 102 | 2.6 | 2.6 | 0.00 | 0.00 | 0.00 | 47 | 1024.0 |
| 20260508170212 | 56 | 261 | 3.5 | 4.3 | 0.00 | 0.00 | 0.00 | 47 | 1024.0 |
| 20260508165709 | 57 | 233 | 0.0 | 0.9 | 0.00 | 0.00 | 0.00 | 47 | 1024.0 |
| 20260508165206 | 56 | 72 | 1.7 | 1.7 | 0.00 | 0.00 | 0.00 | 47 | 1024.0 |
| 20260508164702 | 55 | 127 | 2.6 | 4.3 | 0.00 | 0.00 | 0.00 | 48 | 1024.1 |
| 20260508164159 | 55 | 203 | 0.9 | 0.9 | 0.00 | 0.00 | 0.00 | 48 | 1024.1 |
| 20260508163657 | 54 | 41 | 2.6 | 5.2 | 0.00 | 0.00 | 0.00 | 51 | 1024.4 |
| 20260508163154 | 55 | 66 | 3.5 | 7.0 | 0.00 | 0.00 | 0.00 | 51 | 1024.2 |
| 20260508162649 | 53 | 215 | 0.9 | 0.9 | 0.00 | 0.00 | 0.00 | 52 | 1024.1 |
| 20260508162147 | 54 | 261 | 0.9 | 1.7 | 0.00 | 0.00 | 0.00 | 53 | 1024.1 |
| 20260508161644 | 55 | 250 | 3.5 | 4.3 | 0.00 | 0.00 | 0.00 | 51 | 1024.0 |
| 20260508161142 | 55 | 44 | 1.7 | 1.7 | 0.00 | 0.00 | 0.00 | 52 | 1024.2 |
| 20260508160639 | 54 | 196 | 0.0 | 0.9 | 0.00 | 0.00 | 0.00 | 51 | 1024.5 |
| 20260508160136 | 53 | 114 | 1.7 | 1.7 | 0.00 | 0.00 | 0.00 | 52 | 1024.1 |
| 20260508155634 | 53 | 206 | 0.0 | 0.9 | 0.00 | 0.00 | 0.00 | 55 | 1023.8 |
| 20260508155131 | 52 | 184 | 0.0 | 0.0 | 0.00 | 0.00 | 0.00 | 58 | 1024.4 |
| 20260508154628 | 51 | 144 | 0.9 | 1.7 | 0.00 | 0.00 | 0.00 | 60 | 1024.4 |
| 20260508154124 | 50 | 102 | 1.7 | 2.6 | 0.00 | 0.00 | 0.00 | 63 | 1024.5 |
| 20260508153621 | 50 | 131 | 3.5 | 5.2 | 0.00 | 0.00 | 0.00 | 65 | 1024.5 |
| 20260508153117 | 48 | 205 | 0.9 | 0.9 | 0.00 | 0.00 | 0.00 | 71 | 1024.5 |
| 20260508152614 | 49 | 74 | 0.9 | 1.7 | 0.00 | 0.00 | 0.00 | 71 | 1024.9 |
| 20260508152109 | 49 | 220 | 0.0 | 0.0 | 0.00 | 0.00 | 0.00 | 69 | 1024.9 |
| 20260508151607 | 48 | 176 | 0.9 | 1.7 | 0.00 | 0.00 | 0.00 | 70 | 1024.6 |
| 20260508151104 | 48 | 148 | 2.6 | 4.3 | 0.00 | 0.00 | 0.00 | 69 | 1024.6 |
| 20260508150601 | 47 | 134 | 1.7 | 1.7 | 0.00 | 0.00 | 0.00 | 74 | 1024.7 |
| 20260508150057 | 46 | 158 | 0.9 | 1.7 | 0.00 | 0.00 | 0.00 | 74 | 1024.9 |
| 20260508145553 | 45 | 221 | 0.9 | 0.9 | 0.00 | 0.00 | 0.00 | 77 | 1024.6 |
| 20260508145050 | 45 | 212 | 0.9 | 0.9 | 0.00 | 0.00 | 0.00 | 77 | 1024.9 |
| 20260508144548 | 46 | 177 | 1.7 | 1.7 | 0.00 | 0.00 | 0.00 | 77 | 1025.1 |
| 20260508144045 | 45 | 201 | 0.0 | 0.0 | 0.00 | 0.00 | 0.00 | 79 | 1024.9 |
| 20260508143542 | 43 | 166 | 1.7 | 1.7 | 0.00 | 0.00 | 0.00 | 81 | 1024.9 |
| 20260508143039 | 43 | 228 | 0.9 | 1.7 | 0.00 | 0.00 | 0.00 | 83 | 1025.0 |
| 20260508142536 | 42 | 209 | 2.6 | 2.6 | 0.00 | 0.00 | 0.00 | 83 | 1025.4 |
| 20260508142032 | 42 | 342 | 3.5 | 4.3 | 0.00 | 0.00 | 0.00 | 85 | 1025.2 |
| 20260508141528 | 41 | 229 | 0.0 | 0.9 | 0.00 | 0.00 | 0.00 | 86 | 1025.1 |
| 20260508141026 | 41 | 223 | 1.7 | 1.7 | 0.00 | 0.00 | 0.00 | 88 | 1025.1 |
| 20260508140523 | 40 | 252 | 1.7 | 1.7 | 0.00 | 0.00 | 0.00 | 90 | 1025.5 |
| 20260508140019 | 39 | 224 | 0.0 | 0.0 | 0.00 | 0.00 | 0.00 | 91 | 1025.6 |
| 20260508135515 | 39 | 227 | 0.0 | 0.0 | 0.00 | 0.00 | 0.00 | 91 | 1025.5 |
| 20260508135012 | 38 | 220 | 0.0 | 0.0 | 0.00 | 0.00 | 0.00 | 92 | 1025.5 |
| 20260508134509 | 37 | 211 | 0.0 | 0.0 | 0.00 | 0.00 | 0.00 | 92 | 1025.4 |
| 20260508134006 | 37 | 214 | 0.0 | 0.0 | 0.00 | 0.00 | 0.00 | 92 | 1025.4 |
| 20260508133503 | 36 | 190 | 0.9 | 1.7 | 0.00 | 0.00 | 0.00 | 92 | 1025.6 |
| 20260508132959 | 36 | 186 | 0.9 | 0.9 | 0.00 | 0.00 | 0.00 | 93 | 1025.2 |
| 20260508132458 | 35 | 201 | 0.9 | 0.9 | 0.00 | 0.00 | 0.00 | 93 | 1025.7 |
| 20260508131954 | 35 | 222 | 0.0 | 0.0 | 0.00 | 0.00 | 0.00 | 92 | 1025.6 |
| 20260508131449 | 35 | 226 | 0.9 | 0.9 | 0.00 | 0.00 | 0.00 | 92 | 1025.2 |
| 20260508130946 | 35 | 208 | 0.9 | 0.9 | 0.00 | 0.00 | 0.00 | 92 | 1025.4 |
| 20260508130444 | 35 | 227 | 0.0 | 0.0 | 0.00 | 0.00 | 0.00 | 93 | 1025.2 |
| 20260508125939 | 34 | 208 | 0.9 | 0.9 | 0.00 | 0.00 | 0.00 | 93 | 1025.4 |
| 20260508125435 | 33 | 181 | 0.9 | 0.9 | 0.00 | 0.00 | 0.00 | 94 | 1025.2 |
| 20260508124933 | 32 | 206 | 0.0 | 0.0 | 0.00 | 0.00 | 0.00 | 95 | 1025.0 |
| 20260508124431 | 31 | 218 | 0.0 | 0.9 | 0.00 | 0.00 | 0.00 | 95 | 1024.9 |
| 20260508123928 | 31 | 256 | 0.0 | 0.9 | 0.00 | 0.00 | 0.00 | 95 | 1024.5 |
| 20260508123427 | 31 | 225 | 0.0 | 0.0 | 0.00 | 0.00 | 0.00 | 95 | 1024.5 |
| 20260508122923 | 31 | 199 | 0.0 | 0.9 | 0.00 | 0.00 | 0.00 | 95 | 1024.1 |
| 20260508122420 | 32 | 213 | 0.0 | 0.0 | 0.00 | 0.00 | 0.00 | 95 | 1024.2 |
| 20260508121917 | 31 | 191 | 0.9 | 0.9 | 0.00 | 0.00 | 0.00 | 94 | 1023.8 |
| 20260508121415 | 33 | 225 | 0.9 | 0.9 | 0.00 | 0.00 | 0.00 | 94 | 1023.8 |
| 20260508120913 | 32 | 173 | 0.9 | 0.9 | 0.00 | 0.00 | 0.00 | 94 | 1023.7 |
| 20260508120410 | 32 | 223 | 0.0 | 0.0 | 0.00 | 0.00 | 0.00 | 95 | 1024.0 |
| 20260508115908 | 32 | 117 | 4.3 | 5.2 | 0.00 | 0.00 | 0.00 | 94 | 1023.6 |
| 20260508115405 | 32 | 263 | 1.7 | 1.7 | 0.00 | 0.00 | 0.00 | 93 | 1023.6 |
| 20260508114901 | 33 | 354 | 3.5 | 4.3 | 0.00 | 0.00 | 0.00 | 91 | 1023.1 |
| 20260508114358 | 33 | 236 | 0.9 | 0.9 | 0.00 | 0.00 | 0.00 | 89 | 1023.1 |
| 20260508113855 | 33 | 165 | 2.6 | 2.6 | 0.00 | 0.00 | 0.00 | 91 | 1023.3 |
| 20260508113353 | 32 | 205 | 2.6 | 2.6 | 0.00 | 0.00 | 0.00 | 92 | 1023.2 |
| 20260508112850 | 33 | 221 | 2.6 | 2.6 | 0.00 | 0.00 | 0.00 | 90 | 1023.2 |
| 20260508112347 | 33 | 190 | 1.7 | 1.7 | 0.00 | 0.00 | 0.00 | 91 | 1023.2 |
| 20260508111843 | 34 | 225 | 0.0 | 0.9 | 0.00 | 0.00 | 0.00 | 90 | 1023.1 |
| 20260508111340 | 33 | 123 | 2.6 | 4.3 | 0.00 | 0.00 | 0.00 | 92 | 1023.3 |
| 20260508110837 | 33 | 150 | 1.7 | 2.6 | 0.00 | 0.00 | 0.00 | 93 | 1023.3 |
| 20260508110335 | 33 | 140 | 1.7 | 1.7 | 0.00 | 0.00 | 0.00 | 93 | 1023.1 |
| 20260508105835 | 33 | 137 | 4.3 | 4.3 | 0.00 | 0.00 | 0.00 | 93 | 1023.2 |
| 20260508105332 | 33 | 146 | 3.5 | 4.3 | 0.00 | 0.00 | 0.00 | 94 | 1023.1 |
| 20260508104828 | 32 | 236 | 2.6 | 2.6 | 0.00 | 0.00 | 0.00 | 94 | 1023.3 |
| 20260508104325 | 33 | 152 | 4.3 | 5.2 | 0.00 | 0.00 | 0.00 | 94 | 1023.1 |
| 20260508103822 | 33 | 238 | 1.7 | 1.7 | 0.00 | 0.00 | 0.00 | 94 | 1023.6 |
| 20260508103319 | 32 | 193 | 1.7 | 1.7 | 0.00 | 0.00 | 0.00 | 96 | 1023.3 |
| 20260508102817 | 31 | 232 | 0.0 | 0.0 | 0.00 | 0.00 | 0.00 | 96 | 1023.2 |
| 20260508102315 | 32 | 227 | 0.0 | 0.0 | 0.00 | 0.00 | 0.00 | 96 | 1023.1 |
| 20260508101812 | 31 | 192 | 1.7 | 1.7 | 0.00 | 0.00 | 0.00 | 96 | 1023.3 |
| 20260508101309 | 31 | 208 | 0.9 | 1.7 | 0.00 | 0.00 | 0.00 | 96 | 1023.1 |
| 20260508100807 | 32 | 253 | 1.7 | 1.7 | 0.00 | 0.00 | 0.00 | 95 | 1023.1 |
| 20260508100305 | 31 | 194 | 0.9 | 1.7 | 0.00 | 0.00 | 0.00 | 95 | 1022.8 |
| 20260508095800 | 32 | 82 | 0.9 | 0.9 | 0.00 | 0.00 | 0.00 | 96 | 1023.0 |
| 20260508095258 | 32 | 228 | 0.0 | 0.0 | 0.00 | 0.00 | 0.00 | 96 | 1022.8 |
| 20260508094755 | 31 | 194 | 0.0 | 0.9 | 0.00 | 0.00 | 0.00 | 96 | 1023.0 |
| 20260508094252 | 31 | 216 | 0.0 | 0.0 | 0.00 | 0.00 | 0.00 | 95 | 1022.8 |
| 20260508093749 | 31 | 208 | 0.9 | 0.9 | 0.00 | 0.00 | 0.00 | 95 | 1023.0 |
| 20260508093247 | 32 | 196 | 0.0 | 0.0 | 0.00 | 0.00 | 0.00 | 95 | 1022.8 |
| 20260508092743 | 32 | 227 | 0.9 | 0.9 | 0.00 | 0.00 | 0.00 | 94 | 1023.1 |
| 20260508092242 | 32 | 142 | 2.6 | 2.6 | 0.00 | 0.00 | 0.00 | 94 | 1022.7 |
| 20260508091739 | 32 | 242 | 0.9 | 0.9 | 0.00 | 0.00 | 0.00 | 93 | 1023.1 |
| 20260508091236 | 32 | 160 | 1.7 | 1.7 | 0.00 | 0.00 | 0.00 | 93 | 1023.0 |
| 20260508090734 | 33 | 226 | 0.0 | 0.0 | 0.00 | 0.00 | 0.00 | 93 | 1023.1 |
| 20260508090231 | 33 | 140 | 1.7 | 1.7 | 0.00 | 0.00 | 0.00 | 93 | 1023.0 |
| 20260508085721 | 33 | 226 | 0.0 | 0.0 | 0.00 | 0.00 | 0.00 | 92 | 1023.1 |
| 20260508085219 | 33 | 226 | 0.0 | 0.0 | 0.00 | 0.00 | 0.00 | 92 | 1022.8 |
| 20260508084714 | 34 | 206 | 0.9 | 0.9 | 0.00 | 0.00 | 0.00 | 91 | 1023.1 |
| 20260508084213 | 34 | 154 | 0.9 | 0.9 | 0.00 | 0.00 | 0.00 | 90 | 1023.3 |
| 20260508083710 | 35 | 229 | 0.0 | 0.0 | 0.00 | 0.00 | 0.00 | 89 | 1023.1 |
| 20260508083207 | 35 | 221 | 0.0 | 0.0 | 0.00 | 0.00 | 0.00 | 89 | 1023.1 |
| 20260508082702 | 35 | 198 | 0.9 | 0.9 | 0.00 | 0.00 | 0.00 | 90 | 1023.1 |
| 20260508082200 | 35 | 228 | 0.9 | 0.9 | 0.00 | 0.00 | 0.00 | 89 | 1023.5 |
| 20260508081657 | 36 | 186 | 0.0 | 0.0 | 0.00 | 0.00 | 0.00 | 89 | 1023.2 |
| 20260508081153 | 36 | 228 | 1.7 | 1.7 | 0.00 | 0.00 | 0.00 | 88 | 1023.2 |
| 20260508080650 | 35 | 200 | 0.9 | 0.9 | 0.00 | 0.00 | 0.00 | 89 | 1023.3 |
| 20260508080149 | 35 | 210 | 0.0 | 0.0 | 0.00 | 0.00 | 0.00 | 89 | 1023.6 |
| 20260508075644 | 35 | 187 | 0.9 | 1.7 | 0.00 | 0.00 | 0.00 | 88 | 1023.2 |
| 20260508075142 | 36 | 208 | 0.0 | 0.9 | 0.00 | 0.00 | 0.00 | 88 | 1023.5 |
| 20260508074639 | 36 | 226 | 0.0 | 0.0 | 0.00 | 0.00 | 0.00 | 87 | 1023.6 |
| 20260508074136 | 38 | 241 | 0.9 | 1.7 | 0.00 | 0.00 | 0.00 | 83 | 1023.7 |
| 20260508073633 | 39 | 221 | 0.0 | 0.9 | 0.00 | 0.00 | 0.00 | 82 | 1023.7 |
| 20260508073131 | 39 | 213 | 0.0 | 0.0 | 0.00 | 0.00 | 0.00 | 82 | 1024.0 |
| 20260508072627 | 39 | 213 | 0.0 | 0.0 | 0.00 | 0.00 | 0.00 | 81 | 1024.0 |
| 20260508072124 | 39 | 170 | 1.7 | 1.7 | 0.00 | 0.00 | 0.00 | 81 | 1023.7 |
| 20260508071621 | 38 | 157 | 1.7 | 2.6 | 0.00 | 0.00 | 0.00 | 81 | 1024.0 |
| 20260508071120 | 38 | 206 | 0.9 | 0.9 | 0.00 | 0.00 | 0.00 | 80 | 1023.8 |
| 20260508070617 | 37 | 166 | 2.6 | 2.6 | 0.00 | 0.00 | 0.00 | 82 | 1024.1 |
| 20260508070115 | 36 | 179 | 1.7 | 1.7 | 0.00 | 0.00 | 0.00 | 85 | 1024.1 |
| 20260508065612 | 36 | 128 | 1.7 | 2.6 | 0.00 | 0.00 | 0.00 | 84 | 1024.5 |
| 20260508065110 | 36 | 179 | 1.7 | 1.7 | 0.00 | 0.00 | 0.00 | 82 | 1024.5 |
| 20260508064608 | 36 | 195 | 0.9 | 0.9 | 0.00 | 0.00 | 0.00 | 84 | 1024.7 |
| 20260508064105 | 36 | 228 | 0.0 | 0.0 | 0.00 | 0.00 | 0.00 | 83 | 1024.5 |
| 20260508063602 | 35 | 165 | 1.7 | 1.7 | 0.00 | 0.00 | 0.00 | 84 | 1024.5 |
| 20260508063101 | 35 | 213 | 0.0 | 0.0 | 0.00 | 0.00 | 0.00 | 85 | 1024.1 |
| 20260508062558 | 35 | 227 | 0.0 | 0.0 | 0.00 | 0.00 | 0.00 | 85 | 1024.1 |
| 20260508062054 | 36 | 214 | 0.0 | 0.0 | 0.00 | 0.00 | 0.00 | 85 | 1024.2 |
| 20260508061552 | 35 | 148 | 2.6 | 2.6 | 0.00 | 0.00 | 0.00 | 85 | 1024.2 |
| 20260508061049 | 36 | 227 | 0.9 | 0.9 | 0.00 | 0.00 | 0.00 | 82 | 1024.2 |
| 20260508060545 | 35 | 145 | 2.6 | 2.6 | 0.00 | 0.00 | 0.00 | 84 | 1023.7 |
| 20260508060043 | 35 | 226 | 0.0 | 0.0 | 0.00 | 0.00 | 0.00 | 83 | 1024.1 |
| 20260508055538 | 35 | 182 | 1.7 | 1.7 | 0.00 | 0.11 | 0.11 | 84 | 1024.2 |
| 20260508055036 | 36 | 194 | 0.9 | 0.9 | 0.00 | 0.11 | 0.11 | 83 | 1024.0 |
| 20260508054532 | 36 | 149 | 2.6 | 2.6 | 0.00 | 0.11 | 0.11 | 83 | 1024.0 |
| 20260508054029 | 37 | 228 | 0.9 | 0.9 | 0.00 | 0.11 | 0.11 | 81 | 1024.2 |
| 20260508053526 | 36 | 210 | 0.9 | 0.9 | 0.00 | 0.11 | 0.11 | 82 | 1024.0 |
| 20260508053025 | 36 | 196 | 1.7 | 1.7 | 0.00 | 0.11 | 0.11 | 82 | 1024.0 |
| 20260508052521 | 36 | 214 | 0.0 | 0.9 | 0.00 | 0.11 | 0.11 | 81 | 1023.7 |
| 20260508052017 | 37 | 226 | 0.0 | 0.0 | 0.00 | 0.11 | 0.11 | 81 | 1023.6 |
| 20260508051514 | 37 | 208 | 0.0 | 0.9 | 0.00 | 0.11 | 0.11 | 82 | 1024.2 |
| 20260508051009 | 37 | 218 | 0.0 | 0.0 | 0.00 | 0.11 | 0.11 | 80 | 1023.7 |
| 20260508050506 | 37 | 188 | 0.9 | 0.9 | 0.00 | 0.11 | 0.11 | 80 | 1023.5 |
| 20260508050003 | 38 | 234 | 0.9 | 0.9 | 0.00 | 0.11 | 0.11 | 79 | 1023.6 |
| 20260508045500 | 38 | 197 | 0.0 | 0.0 | 0.00 | 0.11 | 0.11 | 78 | 1023.5 |
| 20260508044957 | 38 | 223 | 0.9 | 0.9 | 0.00 | 0.11 | 0.11 | 80 | 1023.5 |
| 20260508044454 | 38 | 211 | 0.9 | 0.9 | 0.00 | 0.11 | 0.11 | 80 | 1023.5 |
| 20260508043950 | 38 | 177 | 0.9 | 0.9 | 0.00 | 0.11 | 0.11 | 81 | 1023.3 |
| 20260508043447 | 39 | 240 | 1.7 | 1.7 | 0.00 | 0.11 | 0.11 | 77 | 1023.6 |
| 20260508042943 | 38 | 195 | 0.9 | 1.7 | 0.00 | 0.11 | 0.11 | 77 | 1023.6 |
| 20260508042441 | 38 | 219 | 0.0 | 0.0 | 0.00 | 0.11 | 0.11 | 79 | 1023.5 |
| 20260508041938 | 39 | 226 | 0.0 | 0.0 | 0.00 | 0.11 | 0.11 | 79 | 1023.5 |
| 20260508041434 | 39 | 219 | 0.0 | 0.0 | 0.00 | 0.11 | 0.11 | 78 | 1023.1 |
| 20260508040931 | 38 | 143 | 2.6 | 2.6 | 0.00 | 0.11 | 0.11 | 80 | 1023.5 |
| 20260508040429 | 38 | 135 | 1.7 | 1.7 | 0.00 | 0.11 | 0.11 | 80 | 1023.2 |
| 20260508035926 | 39 | 233 | 0.0 | 0.0 | 0.00 | 0.11 | 0.11 | 79 | 1023.3 |
| 20260508035423 | 40 | 231 | 0.9 | 0.9 | 0.00 | 0.11 | 0.11 | 76 | 1023.1 |
| 20260508034919 | 39 | 143 | 2.6 | 2.6 | 0.00 | 0.11 | 0.11 | 79 | 1023.6 |
| 20260508034417 | 39 | 218 | 0.0 | 0.0 | 0.00 | 0.11 | 0.11 | 79 | 1024.0 |
| 20260508033913 | 40 | 239 | 1.7 | 1.7 | 0.00 | 0.11 | 0.11 | 76 | 1023.3 |
| 20260508033412 | 40 | 194 | 1.7 | 1.7 | 0.00 | 0.11 | 0.11 | 78 | 1023.3 |
| 20260508032909 | 40 | 241 | 1.7 | 1.7 | 0.00 | 0.11 | 0.11 | 77 | 1023.5 |
| 20260508032406 | 41 | 226 | 0.9 | 0.9 | 0.00 | 0.11 | 0.11 | 70 | 1023.3 |
| 20260508031903 | 40 | 178 | 1.7 | 1.7 | 0.00 | 0.11 | 0.11 | 76 | 1023.2 |
| 20260508031400 | 42 | 227 | 0.0 | 0.0 | 0.00 | 0.11 | 0.11 | 73 | 1023.0 |
| 20260508030855 | 43 | 189 | 0.9 | 0.9 | 0.00 | 0.11 | 0.11 | 72 | 1023.3 |
| 20260508030353 | 43 | 179 | 0.9 | 0.9 | 0.00 | 0.11 | 0.11 | 68 | 1023.2 |
| 20260508025850 | 45 | 196 | 0.9 | 0.9 | 0.00 | 0.11 | 0.11 | 64 | 1023.3 |
| 20260508025347 | 42 | 211 | 0.0 | 0.9 | 0.00 | 0.11 | 0.11 | 70 | 1023.1 |
| 20260508024843 | 42 | 163 | 1.7 | 1.7 | 0.00 | 0.11 | 0.11 | 69 | 1023.5 |
| 20260508024340 | 43 | 233 | 1.7 | 1.7 | 0.00 | 0.11 | 0.11 | 69 | 1023.2 |
| 20260508023837 | 43 | 178 | 0.0 | 0.0 | 0.00 | 0.11 | 0.11 | 69 | 1023.2 |
| 20260508023334 | 43 | 219 | 0.0 | 0.0 | 0.00 | 0.11 | 0.11 | 68 | 1023.1 |
| 20260508022830 | 44 | 222 | 0.0 | 0.0 | 0.00 | 0.11 | 0.11 | 67 | 1023.3 |
| 20260508022326 | 44 | 173 | 0.9 | 1.7 | 0.00 | 0.11 | 0.11 | 70 | 1023.7 |
| 20260508021824 | 45 | 230 | 0.0 | 0.0 | 0.00 | 0.11 | 0.11 | 66 | 1023.5 |
| 20260508021320 | 46 | 225 | 0.0 | 0.0 | 0.00 | 0.11 | 0.11 | 65 | 1023.2 |
| 20260508020816 | 46 | 224 | 0.0 | 0.0 | 0.00 | 0.11 | 0.11 | 62 | 1023.1 |
| 20260508020314 | 47 | 225 | 0.0 | 0.0 | 0.00 | 0.11 | 0.11 | 61 | 1023.2 |
| 20260508015810 | 48 | 226 | 0.0 | 0.0 | 0.00 | 0.11 | 0.11 | 57 | 1022.7 |
| 20260508015308 | 50 | 192 | 0.9 | 1.7 | 0.00 | 0.11 | 0.11 | 55 | 1022.7 |
| 20260508014805 | 50 | 267 | 6.1 | 8.7 | 0.00 | 0.11 | 0.11 | 53 | 1022.7 |
| 20260508014302 | 51 | 197 | 0.0 | 0.0 | 0.00 | 0.11 | 0.11 | 53 | 1022.5 |
| 20260508013757 | 51 | 263 | 1.7 | 1.7 | 0.00 | 0.11 | 0.11 | 51 | 1022.7 |
| 20260508013254 | 51 | 247 | 0.9 | 1.7 | 0.00 | 0.11 | 0.11 | 50 | 1022.7 |
| 20260508012751 | 52 | 273 | 3.5 | 4.3 | 0.00 | 0.11 | 0.11 | 50 | 1022.3 |
| 20260508012248 | 53 | 228 | 2.6 | 2.6 | 0.00 | 0.11 | 0.11 | 47 | 1022.6 |
| 20260508011747 | 53 | 277 | 7.8 | 9.6 | 0.00 | 0.11 | 0.11 | 45 | 1022.5 |
| 20260508011243 | 53 | 308 | 4.3 | 6.1 | 0.00 | 0.11 | 0.11 | 44 | 1022.1 |
| 20260508010740 | 53 | 255 | 4.3 | 6.1 | 0.00 | 0.11 | 0.11 | 43 | 1022.0 |
| 20260508010238 | 54 | 230 | 0.0 | 0.9 | 0.00 | 0.11 | 0.11 | 44 | 1022.0 |
| 20260508005735 | 55 | 259 | 3.5 | 4.3 | 0.00 | 0.11 | 0.11 | 43 | 1022.2 |
| 20260508005232 | 55 | 287 | 0.9 | 0.9 | 0.00 | 0.11 | 0.11 | 42 | 1021.7 |
| 20260508004727 | 56 | 221 | 1.7 | 1.7 | 0.00 | 0.11 | 0.11 | 42 | 1022.1 |
| 20260508004224 | 55 | 226 | 2.6 | 4.3 | 0.00 | 0.11 | 0.11 | 41 | 1022.0 |
| 20260508003721 | 56 | 246 | 1.7 | 2.6 | 0.00 | 0.11 | 0.11 | 41 | 1022.0 |
| 20260508003218 | 56 | 221 | 1.7 | 1.7 | 0.00 | 0.11 | 0.11 | 42 | 1021.8 |
| 20260508002714 | 57 | 272 | 3.5 | 4.3 | 0.00 | 0.11 | 0.11 | 39 | 1021.8 |
| 20260508002212 | 58 | 244 | 4.3 | 5.2 | 0.00 | 0.11 | 0.11 | 38 | 1021.6 |
| 20260508001707 | 58 | 203 | 2.6 | 5.2 | 0.00 | 0.11 | 0.11 | 38 | 1021.7 |
| 20260508001158 | 58 | 245 | 3.5 | 4.3 | 0.00 | 0.11 | 0.11 | 37 | 1022.0 |
| 20260508000654 | 58 | 296 | 5.2 | 7.8 | 0.00 | 0.11 | 0.11 | 39 | 1021.6 |
| 20260508000151 | 58 | 227 | 7.8 | 8.7 | 0.00 | 0.11 | 0.11 | 38 | 1021.6 |
| 20260507235648 | 57 | 235 | 2.6 | 2.6 | 0.00 | 0.11 | 0.11 | 38 | 1021.8 |
| 20260507235145 | 58 | 229 | 3.5 | 4.3 | 0.00 | 0.11 | 0.11 | 41 | 1022.0 |
| 20260507234642 | 57 | 250 | 3.5 | 5.2 | 0.00 | 0.11 | 0.11 | 38 | 1021.7 |
| 20260507234138 | 57 | 351 | 6.1 | 7.8 | 0.00 | 0.11 | 0.11 | 40 | 1022.0 |
| 20260507233635 | 57 | 206 | 3.5 | 4.3 | 0.00 | 0.11 | 0.11 | 37 | 1021.8 |
| 20260507233134 | 58 | 352 | 10.4 | 13.9 | 0.00 | 0.11 | 0.11 | 36 | 1021.8 |
| 20260507232630 | 59 | 239 | 6.1 | 7.8 | 0.00 | 0.11 | 0.11 | 36 | 1021.7 |
| 20260507232127 | 58 | 204 | 2.6 | 4.3 | 0.00 | 0.11 | 0.11 | 37 | 1022.0 |
| 20260507231623 | 58 | 356 | 5.2 | 6.1 | 0.00 | 0.11 | 0.11 | 38 | 1021.6 |
| 20260507231121 | 57 | 282 | 3.5 | 4.3 | 0.00 | 0.11 | 0.11 | 38 | 1021.8 |
| 20260507230617 | 57 | 232 | 2.6 | 4.3 | 0.00 | 0.11 | 0.11 | 37 | 1021.7 |
| 20260507230114 | 57 | 243 | 1.7 | 2.6 | 0.00 | 0.11 | 0.11 | 37 | 1022.0 |
| 20260507225609 | 56 | 223 | 0.0 | 0.0 | 0.00 | 0.11 | 0.11 | 38 | 1021.4 |
| 20260507225106 | 56 | 238 | 3.5 | 4.3 | 0.00 | 0.11 | 0.11 | 38 | 1021.8 |
| 20260507224601 | 56 | 270 | 1.7 | 1.7 | 0.00 | 0.11 | 0.11 | 41 | 1021.8 |
| 20260507224058 | 56 | 316 | 6.1 | 7.0 | 0.00 | 0.11 | 0.11 | 38 | 1021.8 |
| 20260507223554 | 56 | 354 | 2.6 | 4.3 | 0.00 | 0.11 | 0.11 | 38 | 1022.0 |
| 20260507223051 | 55 | 233 | 2.6 | 2.6 | 0.00 | 0.11 | 0.11 | 39 | 1022.0 |
| 20260507222548 | 55 | 300 | 6.1 | 7.8 | 0.00 | 0.11 | 0.11 | 38 | 1022.0 |
| 20260507222045 | 55 | 222 | 3.5 | 4.3 | 0.00 | 0.11 | 0.11 | 39 | 1022.0 |
| 20260507221541 | 54 | 309 | 4.3 | 6.1 | 0.00 | 0.11 | 0.11 | 39 | 1021.8 |
| 20260507221038 | 55 | 325 | 4.3 | 6.1 | 0.00 | 0.11 | 0.11 | 39 | 1022.3 |
| 20260507220535 | 54 | 248 | 1.7 | 1.7 | 0.00 | 0.11 | 0.11 | 41 | 1022.3 |
| 20260507220033 | 55 | 267 | 1.7 | 1.7 | 0.00 | 0.11 | 0.11 | 39 | 1022.1 |
| 20260507215528 | 55 | 254 | 2.6 | 4.3 | 0.00 | 0.11 | 0.11 | 40 | 1022.2 |
| 20260507215027 | 55 | 317 | 6.1 | 7.0 | 0.00 | 0.11 | 0.11 | 38 | 1022.6 |
| 20260507214524 | 55 | 292 | 4.3 | 5.2 | 0.00 | 0.11 | 0.11 | 40 | 1022.6 |
| 20260507214019 | 55 | 279 | 2.6 | 4.3 | 0.00 | 0.11 | 0.11 | 41 | 1022.5 |
| 20260507213516 | 55 | 281 | 4.3 | 5.2 | 0.00 | 0.11 | 0.11 | 39 | 1023.0 |
| 20260507213013 | 55 | 253 | 2.6 | 2.6 | 0.00 | 0.11 | 0.11 | 40 | 1022.5 |
| 20260507212508 | 55 | 262 | 2.6 | 4.3 | 0.00 | 0.11 | 0.11 | 39 | 1022.2 |
| 20260507212005 | 55 | 261 | 6.1 | 6.1 | 0.00 | 0.11 | 0.11 | 38 | 1022.7 |
| 20260507211502 | 55 | 239 | 3.5 | 4.3 | 0.00 | 0.11 | 0.11 | 41 | 1022.7 |
| 20260507210959 | 55 | 221 | 3.5 | 5.2 | 0.00 | 0.11 | 0.11 | 41 | 1023.0 |
| 20260507210455 | 55 | 254 | 3.5 | 4.3 | 0.00 | 0.11 | 0.11 | 39 | 1022.7 |
| 20260507205952 | 55 | 268 | 3.5 | 4.3 | 0.00 | 0.11 | 0.11 | 40 | 1023.1 |
| 20260507205444 | 55 | 222 | 1.7 | 1.7 | 0.00 | 0.11 | 0.11 | 43 | 1023.0 |
| 20260507204940 | 55 | 229 | 2.6 | 4.3 | 0.00 | 0.11 | 0.11 | 41 | 1023.3 |
| 20260507204436 | 55 | 281 | 3.5 | 4.3 | 0.00 | 0.11 | 0.11 | 43 | 1023.3 |
| 20260507203934 | 56 | 288 | 4.3 | 5.2 | 0.00 | 0.11 | 0.11 | 43 | 1023.5 |
| 20260507203432 | 54 | 225 | 0.9 | 1.7 | 0.00 | 0.11 | 0.11 | 45 | 1023.5 |
| 20260507202928 | 53 | 242 | 2.6 | 2.6 | 0.00 | 0.11 | 0.11 | 47 | 1023.2 |
| 20260507202425 | 54 | 228 | 2.6 | 2.6 | 0.00 | 0.11 | 0.11 | 49 | 1023.3 |
| 20260507201920 | 53 | 232 | 0.9 | 1.7 | 0.00 | 0.11 | 0.11 | 42 | 1023.6 |
| 20260507201415 | 53 | 256 | 2.6 | 2.6 | 0.00 | 0.11 | 0.11 | 40 | 1023.3 |
| 20260507200913 | 53 | 247 | 2.6 | 5.2 | 0.00 | 0.11 | 0.11 | 42 | 1023.6 |
| 20260507200408 | 54 | 224 | 2.6 | 2.6 | 0.00 | 0.11 | 0.11 | 43 | 1023.6 |
| 20260507195904 | 53 | 242 | 2.6 | 2.6 | 0.00 | 0.11 | 0.11 | 43 | 1023.6 |
| 20260507195402 | 54 | 335 | 3.5 | 5.2 | 0.00 | 0.11 | 0.11 | 42 | 1023.6 |
| 20260507194859 | 54 | 271 | 7.0 | 9.6 | 0.00 | 0.11 | 0.11 | 43 | 1023.6 |
| 20260507194356 | 54 | 228 | 0.9 | 1.7 | 0.00 | 0.11 | 0.11 | 42 | 1023.6 |
| 20260507193852 | 54 | 359 | 4.3 | 6.1 | 0.00 | 0.11 | 0.11 | 44 | 1023.5 |
| 20260507193349 | 54 | 234 | 0.9 | 0.9 | 0.00 | 0.11 | 0.11 | 42 | 1023.7 |
| 20260507192846 | 54 | 250 | 0.9 | 1.7 | 0.00 | 0.11 | 0.11 | 40 | 1023.7 |
| 20260507192342 | 55 | 240 | 1.7 | 1.7 | 0.00 | 0.11 | 0.11 | 48 | 1024.0 |
| 20260507191838 | 56 | 230 | 0.9 | 0.9 | 0.00 | 0.11 | 0.11 | 40 | 1023.6 |
| 20260507191334 | 54 | 262 | 2.6 | 2.6 | 0.00 | 0.11 | 0.11 | 42 | 1023.6 |
| 20260507190832 | 55 | 225 | 2.6 | 4.3 | 0.00 | 0.11 | 0.11 | 42 | 1023.7 |
| 20260507190330 | 56 | 311 | 7.8 | 9.6 | 0.00 | 0.11 | 0.11 | 43 | 1023.6 |
| 20260507185829 | 56 | 214 | 2.6 | 4.3 | 0.00 | 0.11 | 0.11 | 41 | 1023.8 |
| 20260507185325 | 54 | 231 | 1.7 | 2.6 | 0.00 | 0.11 | 0.11 | 48 | 1023.8 |
| 20260507184822 | 53 | 227 | 1.7 | 1.7 | 0.00 | 0.11 | 0.11 | 45 | 1024.0 |
| 20260507184320 | 55 | 249 | 3.5 | 4.3 | 0.00 | 0.11 | 0.11 | 49 | 1023.7 |
| 20260507183816 | 54 | 349 | 0.9 | 1.7 | 0.00 | 0.11 | 0.11 | 46 | 1024.0 |
| 20260507183314 | 54 | 295 | 3.5 | 4.3 | 0.00 | 0.11 | 0.11 | 50 | 1023.7 |
| 20260507182811 | 54 | 261 | 5.2 | 7.0 | 0.00 | 0.11 | 0.11 | 46 | 1023.8 |
| 20260507182307 | 54 | 205 | 3.5 | 5.2 | 0.00 | 0.11 | 0.11 | 47 | 1023.8 |
| 20260507181803 | 53 | 46 | 4.3 | 6.1 | 0.00 | 0.11 | 0.11 | 53 | 1024.1 |
| 20260507181259 | 53 | 114 | 4.3 | 5.2 | 0.00 | 0.11 | 0.11 | 51 | 1023.8 |
| 20260507180755 | 50 | 216 | 0.0 | 0.9 | 0.00 | 0.11 | 0.11 | 67 | 1024.1 |
| 20260507180253 | 48 | 218 | 0.0 | 0.0 | 0.00 | 0.11 | 0.11 | 71 | 1023.7 |
| 20260507175748 | 46 | 223 | 0.0 | 0.0 | 0.00 | 0.11 | 0.11 | 76 | 1024.0 |
| 20260507175246 | 46 | 216 | 0.0 | 0.0 | 0.00 | 0.11 | 0.11 | 80 | 1024.0 |
| 20260507174743 | 45 | 271 | 0.0 | 0.9 | 0.00 | 0.11 | 0.11 | 77 | 1024.2 |
| 20260507174241 | 45 | 196 | 1.7 | 2.6 | 0.00 | 0.11 | 0.11 | 75 | 1024.4 |
| 20260507173738 | 45 | 198 | 1.7 | 1.7 | 0.00 | 0.11 | 0.11 | 77 | 1024.4 |
| 20260507173235 | 44 | 224 | 0.0 | 0.0 | 0.00 | 0.11 | 0.11 | 75 | 1024.7 |
| 20260507172731 | 43 | 228 | 0.0 | 0.9 | 0.00 | 0.11 | 0.11 | 75 | 1024.5 |